Tracking 31027 objects as of 19-Jul-2025
HD Live streaming from Space Station
objects crossing your sky now

STARLINK-5325

Track STARLINK-5325 now!
10-day predictions
STARLINK-5325 is classified as:


NORAD ID: 55292
Int'l Code: 2023-010Z
Perigee: 576.7 km
Apogee: 581.7 km
Inclination: 70.0 °
Period: 96.1 minutes
Semi major axis: 6950 km
RCS: Unknown
Launch date: January 19, 2023
Source: United States (US)
Launch site: AIR FORCE WESTERN TEST RANGE (AFWTR)
Your satellite tracking list
ATLAS 2A CENTAUR R/B
Track 1 satellite(s)




NASA's NSSDC Master Catalog

Two Line Element Set (TLE):
1 55292U 23010Z   25199.51893631  .00000048  00000-0  11808-4 0  9995
2 55292  69.9984 254.8425 0003645 268.2191  91.8550 14.98330869138198
Source of the keplerian elements: AFSPC